GEFSCGP_500_meanwind_084.txt.gz
Wind_Speed
9 9 8 8 8 8 9 9 9 9 10 10 11 13 15 17 17 18 19 19 19 19 18 16 15 15 15 16 17 18 18 20 21 22 23 24 25 27 28 29 29 30 31 32
7 7 7 7 8 8 7 8 8 9 11 11 11 12 13 14 15 16 15 16 15 15 14 13 14 14 15 16 17 18 19 20 22 23 25 26 28 28 29 30 32 32 33 34
6 6 6 6 7 8 8 8 9 9 10 10 10 10 11 12 12 11 12 12 10 10 10 11 13 14 15 16 17 18 20 21 23 24 26 28 29 31 32 33 34 35 36 36
6 6 6 7 8 9 8 9 10 10 10 9 9 9 10 9 8 7 7 8 8 9 10 11 12 14 14 16 18 20 21 23 24 26 27 29 30 32 33 35 36 37 37 37
7 7 7 8 8 9 8 9 10 10 9 9 9 9 9 7 6 5 5 6 7 7 9 11 13 14 16 17 19 21 22 24 26 28 29 31 32 34 35 36 37 37 38 38
8 8 8 8 8 8 8 8 9 8 8 8 8 7 7 6 5 4 4 4 5 6 8 11 13 15 17 18 20 22 24 26 28 29 31 32 33 34 35 36 36 37 37 38
7 9 9 9 8 8 8 9 8 7 7 7 7 6 7 6 5 4 4 5 6 7 9 12 14 16 17 19 21 23 26 27 29 30 32 33 33 33 34 34 35 35 36 36
9 9 9 9 9 8 9 9 9 8 6 6 6 6 5 5 4 4 4 6 7 9 12 14 15 17 18 21 23 25 27 28 30 31 32 33 33 33 34 34 34 34 35 35
9 8 8 8 8 8 9 9 9 8 6 6 5 5 5 5 5 5 7 8 9 11 13 14 16 17 19 21 24 26 28 30 31 32 32 33 33 34 34 34 35 35 35 35
8 8 8 7 7 7 8 8 8 7 7 6 4 5 6 6 7 8 9 10 11 12 14 15 16 18 21 23 26 29 31 32 33 33 33 34 34 34 35 35 35 35 36 36
9 8 7 7 7 7 7 7 7 7 7 6 6 6 7 7 8 9 10 11 12 13 15 16 19 21 24 27 29 32 33 33 33 34 34 35 35 36 36 36 36 37 37 37
9 8 8 8 7 7 7 8 7 7 8 7 7 7 8 8 10 11 12 12 14 15 17 19 21 24 26 29 32 33 34 34 35 35 35 36 37 37 37 37 38 37 37 38
10 10 9 9 9 8 9 8 8 8 8 9 9 9 10 10 12 13 14 15 16 18 20 22 24 26 29 31 33 34 35 35 35 36 36 37 38 38 38 38 38 38 38 39
11 10 10 11 11 11 10 10 9 9 10 10 10 11 12 13 14 15 17 17 19 20 22 24 26 28 31 33 35 35 35 36 36 37 37 38 39 39 39 39 39 39 39 39
11 11 11 12 12 12 10 10 10 11 11 12 12 13 15 16 17 18 19 20 21 22 24 26 28 30 33 34 36 35 36 36 37 38 39 39 40 40 40 40 40 40 40 40
11 11 12 12 13 12 10 10 11 12 12 13 14 15 17 18 19 19 20 21 22 24 26 28 30 32 34 35 35 35 36 37 38 39 40 40 41 41 41 41 41 41 41 41
11 11 11 12 12 11 10 10 10 11 12 14 15 16 18 19 20 20 21 22 23 25 27 29 31 33 35 35 35 36 37 38 39 40 41 41 41 42 42 42 42 42 42 42
11 11 11 10 10 10 8 9 10 11 13 14 16 17 19 19 20 20 21 23 25 27 29 30 32 34 35 35 35 36 38 39 40 41 42 42 42 43 43 43 42 42 42 42
11 10 10 10 10 8 8 9 10 12 13 15 17 18 19 19 20 21 22 24 26 28 30 32 33 34 35 35 36 37 39 41 41 42 43 44 44 43 43 43 43 42 42 42
11 11 11 10 9 8 8 9 11 12 14 16 17 18 19 19 20 22 24 25 28 30 31 32 33 34 35 36 37 39 41 42 43 43 44 45 44 44 44 44 43 42 42 41
13 13 13 12 11 9 10 12 13 15 16 17 18 18 19 20 22 23 25 27 29 30 32 33 34 35 35 36 38 40 42 43 44 45 45 45 45 44 44 44 43 42 42 41
15 14 14 13 13 13 13 14 15 17 18 19 20 20 21 23 24 25 27 28 29 31 32 34 35 36 36 37 39 41 42 44 45 46 46 46 45 45 44 43 42 42 41 40
17 17 16 15 15 16 16 16 17 18 20 21 22 23 24 25 26 27 28 30 31 32 34 35 36 37 37 38 40 42 43 45 46 46 46 46 46 45 44 43 42 41 40 39
20 20 20 19 18 19 19 20 20 21 22 23 24 25 26 26 27 29 30 31 32 33 35 36 36 37 39 40 42 44 45 46 46 47 47 46 46 45 44 43 41 40 39 39
22 24 24 23 22 22 21 22 22 23 24 25 26 26 27 28 29 30 31 32 33 34 36 36 37 38 40 42 44 45 46 46 47 47 47 46 45 44 43 42 40 39 39 38
24 26 27 25 24 25 23 23 24 24 25 26 27 27 28 29 30 31 32 33 34 35 36 37 39 40 42 43 44 46 47 47 47 48 47 46 45 43 42 40 39 39 38 37

GEFSCGP_500_meanwind_090.txt.gz
Wind_Speed
8 8 8 8 9 9 9 9 9 10 11 11 10 10 10 9 11 13 15 17 17 17 18 17 16 15 14 13 13 13 13 14 14 15 16 16 16 17 18 20 21 22 23 25
7 8 8 8 9 8 8 9 9 10 11 11 11 10 10 10 10 10 11 12 11 12 13 13 12 10 10 10 11 12 13 14 15 16 17 18 19 20 21 22 23 24 25 26
6 6 8 8 9 9 8 9 9 10 11 11 11 10 9 8 7 6 6 7 7 7 7 6 6 7 7 9 10 12 13 14 16 17 18 19 21 22 23 24 25 26 27 27
7 7 8 8 9 9 9 10 10 10 10 11 10 9 8 7 5 4 4 5 4 4 4 5 6 7 8 9 11 12 13 15 16 18 19 21 22 23 25 26 27 27 28 28
8 9 9 9 9 9 9 9 10 10 9 9 8 7 6 5 4 3 3 4 4 4 4 5 6 7 8 10 12 13 14 16 18 19 21 23 24 25 26 27 27 28 28 29
9 10 10 10 10 10 10 10 9 9 8 7 8 7 7 6 4 3 3 2 3 3 4 6 7 8 10 11 13 15 17 19 20 22 23 24 25 26 27 27 27 28 29 30
10 11 11 10 10 9 9 9 8 8 8 8 8 7 7 6 5 4 4 3 3 4 6 7 9 10 12 14 15 17 19 21 22 23 24 25 25 26 26 27 28 28 29 30
9 10 11 10 9 9 9 7 5 5 6 8 8 7 7 6 6 5 5 5 5 7 8 10 11 13 14 16 17 19 21 22 23 24 24 25 25 26 26 27 28 29 29 30
10 11 12 10 9 9 8 7 6 5 6 6 8 8 7 6 6 6 6 7 8 9 10 12 13 14 16 17 19 20 21 22 23 24 24 24 25 26 26 27 28 28 29 29
11 11 11 10 9 8 7 6 5 3 3 4 8 8 8 8 7 7 8 9 10 11 12 13 14 16 17 18 20 21 21 22 23 24 24 24 24 25 26 27 28 29 29 30
10 9 10 9 8 8 6 5 4 4 3 2 6 8 8 8 8 9 9 10 11 12 13 14 15 17 18 19 20 21 22 22 23 23 23 24 25 26 27 28 29 30 31 31
11 10 9 10 9 8 7 6 6 5 6 5 5 10 9 9 9 10 10 11 12 13 14 15 16 17 18 19 21 22 22 22 22 23 24 25 27 28 29 30 31 32 33 33
12 10 8 9 10 9 9 9 8 8 8 7 6 10 11 10 10 10 11 12 12 13 14 15 16 18 19 20 21 22 22 22 22 23 25 27 28 30 31 33 33 34 35 35
12 11 10 10 11 12 11 11 11 10 9 10 9 11 12 11 11 11 12 12 13 13 14 15 17 18 19 21 21 22 22 23 24 26 28 29 31 33 34 35 36 36 37 37
13 12 12 12 12 12 12 12 12 12 12 11 12 12 13 12 12 12 12 13 13 14 15 16 18 19 20 21 22 22 23 24 26 28 30 32 34 35 36 37 38 38 38 38
14 13 13 12 12 12 12 12 13 13 12 12 12 12 12 13 13 13 13 13 14 15 16 17 18 20 21 22 23 24 25 26 28 30 32 34 36 37 38 39 40 40 40 40
14 14 13 11 12 12 11 11 12 12 12 12 12 13 13 13 13 13 13 14 14 15 16 18 19 21 22 23 24 25 26 28 30 32 34 36 38 39 40 41 41 42 42 41
14 14 13 11 12 11 11 12 12 11 12 12 13 13 13 14 14 14 14 15 15 16 17 19 20 22 23 24 25 26 28 29 31 34 36 38 40 41 41 42 43 43 42 41
13 13 12 11 11 11 13 12 12 12 12 13 13 14 15 15 15 15 15 15 16 17 19 20 22 23 24 25 26 27 29 31 33 36 38 40 41 42 42 43 43 43 42 41
14 14 13 12 12 11 13 14 13 13 14 15 15 16 16 16 16 17 17 17 18 19 20 22 23 24 25 26 27 29 31 33 35 37 39 41 42 43 44 44 44 43 42 41
15 15 14 14 14 13 17 15 14 15 17 17 17 18 17 17 17 18 19 19 20 21 22 23 24 26 27 28 29 31 33 34 37 39 41 43 44 45 45 45 44 43 42 40
16 17 17 16 16 17 18 17 18 19 20 20 19 19 19 19 19 20 20 21 22 23 24 25 26 27 28 29 31 32 34 36 38 41 43 44 45 45 45 44 44 43 41 39
18 19 20 19 20 20 20 20 21 21 21 21 22 21 21 21 21 22 22 22 23 25 26 27 28 29 30 31 32 34 36 38 41 43 45 46 47 46 45 45 44 42 40 39
22 21 22 21 22 22 22 22 23 23 23 23 23 24 24 24 24 24 25 25 25 27 28 29 31 32 33 33 35 36 38 40 43 45 46 47 47 47 45 44 43 41 40 38
24 23 23 23 23 23 24 24 24 24 24 25 25 25 26 27 27 27 27 27 28 29 30 32 33 34 34 35 37 38 40 42 44 46 47 48 48 47 45 44 42 41 39 38
25 25 25 25 25 24 25 26 26 26 26 27 27 27 28 29 29 29 30 30 31 32 33 34 36 36 37 38 40 41 41 43 45 48 48 49 48 46 44 43 41 40 39 37

GEFSCGP_500_meanwind_096.txt.gz
Wind_Speed
5 8 8 9 9 10 10 10 12 13 16 16 15 14 12 11 11 9 8 9 8 10 11 12 12 12 12 11 12 13 14 15 14 13 13 14 13 14 16 16 17 18 19 21
8 11 8 10 9 9 11 13 12 13 14 14 12 11 8 8 9 7 7 7 6 7 8 8 8 9 10 10 11 12 13 12 13 14 14 14 15 16 17 18 19 20 21 22
8 10 11 12 11 11 11 13 13 13 12 13 11 9 9 6 7 6 5 5 4 4 5 5 4 5 7 8 9 9 10 11 12 13 14 15 17 18 19 19 20 21 22 22
9 10 12 12 12 13 13 12 11 9 10 13 11 12 11 8 7 6 5 5 4 3 3 3 4 6 7 7 8 9 10 12 13 14 15 17 18 19 20 21 21 22 22 23
9 11 12 13 14 14 13 10 8 6 11 13 8 11 11 9 9 7 6 5 4 3 2 3 4 5 6 7 8 10 12 13 14 15 17 18 20 20 21 21 21 22 23 23
9 11 12 12 12 12 11 9 10 10 12 11 6 9 11 11 9 7 6 5 4 3 3 4 4 6 7 8 9 11 13 14 16 17 18 19 20 21 21 22 22 23 24 24
12 13 12 12 12 12 12 10 13 14 13 9 7 6 10 10 10 8 5 4 3 4 4 4 5 7 8 10 11 13 14 15 17 18 19 20 20 21 21 22 23 24 25 26
15 17 12 11 13 15 12 9 11 12 11 10 6 8 9 9 8 7 5 4 5 5 5 6 7 9 10 11 13 14 15 17 18 19 19 20 21 21 22 22 23 24 25 27
15 16 14 13 12 12 10 7 7 8 9 8 7 10 5 7 9 8 7 6 7 7 7 8 9 10 11 12 14 15 16 17 19 19 19 20 21 22 23 24 25 26 27 29
14 15 14 13 11 9 9 7 6 6 8 9 7 10 11 8 10 10 9 9 8 9 9 10 11 12 13 13 15 16 17 18 19 19 20 20 20 21 23 25 27 28 29 31
14 15 14 12 9 9 9 8 8 8 8 9 10 9 10 12 13 13 11 10 10 10 10 11 11 12 13 14 15 16 18 18 19 19 20 21 21 23 25 27 28 29 31 32
15 14 14 13 13 13 10 10 10 9 9 8 9 12 12 14 15 14 13 12 11 12 12 12 12 13 14 15 16 17 18 19 19 19 20 21 23 25 27 28 30 31 32 34
16 16 14 15 17 15 11 9 9 10 8 8 10 13 14 14 15 15 15 13 13 13 14 14 14 14 15 15 16 17 18 19 20 20 21 22 25 27 28 30 32 34 35 36
16 16 15 16 17 13 7 6 7 10 8 10 12 14 16 16 15 16 15 15 14 14 14 15 15 15 16 16 17 18 19 20 21 21 22 24 26 28 30 33 35 36 37 38
15 16 15 15 15 10 8 7 9 12 12 13 15 15 17 20 19 18 17 17 16 15 15 16 16 16 17 18 18 19 20 21 22 23 24 25 27 30 32 34 36 37 38 39
16 15 15 14 14 12 11 11 12 13 13 15 15 16 19 20 20 19 19 18 18 17 17 17 17 17 18 19 20 20 21 23 24 24 25 27 29 31 33 35 37 39 40 41
16 17 16 14 14 14 12 12 13 13 14 14 15 18 19 20 21 20 19 19 19 19 18 18 18 18 19 20 21 22 23 24 25 26 27 29 31 33 35 37 39 40 42 43
18 17 16 15 15 15 11 11 13 14 15 16 17 19 20 21 21 20 20 19 19 19 19 19 19 20 21 22 23 24 24 25 26 27 29 30 33 35 37 39 41 42 43 45
19 17 15 15 15 14 12 15 15 15 15 16 17 19 20 20 20 20 19 19 19 20 20 20 21 21 22 23 24 25 26 27 28 29 31 32 34 37 39 40 42 44 45 45
19 17 16 16 16 16 16 17 17 16 16 17 19 19 20 19 20 22 21 21 21 22 22 22 23 23 24 25 26 27 28 29 31 32 33 34 37 39 41 43 44 46 46 46
20 17 17 17 17 17 20 19 18 17 17 17 19 20 21 22 22 24 24 23 23 24 24 24 25 25 26 27 28 29 30 32 33 35 35 37 39 41 42 44 46 47 47 46
19 19 19 18 19 21 24 24 22 21 20 18 20 22 23 24 25 25 25 25 25 25 25 26 26 27 27 28 29 31 32 34 35 37 37 38 40 42 44 45 47 47 47 46
20 21 22 24 25 25 26 27 24 23 22 21 22 25 27 27 27 27 27 27 26 26 27 27 28 28 29 30 31 32 34 36 37 38 39 40 41 43 45 46 47 48 48 47
22 24 25 26 28 28 26 24 22 23 24 25 26 27 28 28 29 29 28 28 28 28 28 29 30 31 31 32 34 35 37 38 39 40 41 42 44 45 45 46 48 48 48 46
27 26 26 27 27 27 29 28 25 25 27 28 28 29 29 29 30 30 30 30 30 30 31 31 32 33 33 35 36 38 39 40 41 42 44 45 45 45 45 47 48 48 47 45
29 30 30 31 29 28 31 30 29 28 29 30 30 30 31 31 31 32 32 32 32 32 33 34 34 35 36 37 39 39 40 42 44 45 46 46 46 46 47 48 48 47 46 44

GEFSCGP_500_meanwind_102.txt.gz
Wind_Speed
6 5 3 4 6 8 11 15 17 17 17 17 17 18 17 13 10 7 5 4 4 5 5 4 3 5 5 4 3 2 1 3 3 5 6 6 7 8 8 8 9 10 11 11
8 6 4 4 6 8 11 14 16 17 17 17 17 16 14 12 9 6 4 5 6 7 6 5 5 5 5 4 3 2 0 2 3 4 5 6 7 7 8 9 9 10 10 11
9 7 6 7 7 9 11 13 14 17 17 16 16 15 13 9 7 5 5 5 6 6 6 6 7 5 4 3 2 1 0 1 3 4 5 6 7 7 8 8 9 10 11 11
9 7 7 8 8 11 11 11 13 14 14 14 12 11 8 7 5 3 5 6 7 7 7 7 7 5 4 3 3 2 1 2 3 4 5 6 7 7 8 9 10 11 12 13
8 7 7 8 9 11 12 12 11 12 12 10 8 6 7 6 4 3 5 5 6 6 6 7 6 5 4 3 3 3 3 3 4 4 5 6 7 8 8 9 10 11 12 14
8 8 9 10 10 10 11 12 11 11 9 7 5 4 6 6 6 5 5 5 6 6 6 6 5 4 3 3 3 4 4 4 4 5 6 6 7 8 9 10 11 13 14 15
9 8 9 9 10 10 10 10 11 9 8 8 5 4 6 5 6 5 4 3 5 5 5 5 4 3 2 3 3 3 3 4 5 6 7 7 8 9 10 11 12 14 15 17
11 9 9 10 10 10 10 10 10 10 10 9 6 4 4 5 6 5 4 4 4 4 4 4 3 2 2 2 3 3 4 4 5 6 7 8 9 10 11 12 14 15 17 19
13 11 11 11 10 10 10 10 10 10 10 10 6 2 3 3 4 4 4 4 4 3 3 3 2 2 2 2 3 3 4 5 6 7 8 9 10 11 12 14 15 17 19 21
14 13 12 12 12 11 11 10 10 12 12 10 7 4 3 1 2 3 4 3 3 2 3 3 2 2 2 3 3 4 5 6 7 8 9 10 11 12 14 15 17 19 21 23
17 15 13 14 14 13 12 13 13 14 14 13 11 7 5 4 2 2 3 3 3 2 3 2 2 2 3 3 4 5 6 7 8 9 10 11 12 14 15 17 19 21 23 25
18 16 15 15 14 14 14 14 14 15 15 14 12 10 8 6 5 4 3 2 2 2 2 2 2 3 4 5 6 7 8 8 9 10 11 13 14 15 17 18 21 23 25 26
16 17 17 16 15 15 15 14 15 14 14 14 13 12 10 8 7 7 6 4 3 3 3 3 4 5 6 7 8 8 9 9 11 12 13 15 16 17 19 21 23 25 26 28
17 17 18 17 15 15 15 15 16 15 14 13 12 12 12 10 9 8 8 6 4 4 5 6 6 7 8 8 9 10 10 11 13 14 16 17 18 20 21 23 25 27 29 30
17 18 18 17 17 17 16 16 17 17 16 15 14 15 14 13 12 10 9 7 6 6 7 8 8 9 9 10 11 12 13 14 15 17 18 19 21 22 24 25 27 29 30 32
19 19 18 17 17 17 17 17 18 17 17 18 16 15 14 14 12 11 10 9 8 8 8 9 10 11 12 12 13 14 15 16 17 19 20 21 23 25 26 28 29 30 32 33
22 21 19 18 18 17 16 16 17 18 18 19 18 16 15 14 13 12 11 11 10 10 10 11 12 14 14 15 15 16 17 18 19 21 22 24 25 27 28 29 31 32 33 34
22 21 21 20 20 18 15 17 17 18 19 19 19 17 16 16 15 13 12 12 12 12 12 13 14 15 16 17 18 19 20 21 22 23 24 25 27 28 29 31 32 34 35 36
23 23 22 21 20 18 18 18 18 19 21 20 19 18 17 16 16 14 13 13 13 14 14 14 15 16 18 19 20 21 22 23 24 26 26 27 29 30 32 33 34 35 37 38
24 24 22 22 21 20 18 19 19 19 22 21 20 19 19 18 17 15 15 15 15 16 17 17 17 18 20 21 22 23 23 25 26 27 28 29 31 32 34 35 35 37 38 39
24 25 24 22 21 20 19 18 20 21 20 20 21 21 20 19 18 18 18 18 18 18 19 19 20 20 22 23 24 25 26 27 28 29 30 32 33 34 35 36 37 39 39 40
25 25 24 23 22 21 20 19 20 21 20 20 20 20 21 21 20 19 19 18 18 20 20 21 22 23 24 25 26 27 28 29 30 31 32 33 35 36 37 38 39 40 40 41
24 24 24 24 24 22 21 20 21 22 21 20 20 22 22 21 21 21 21 21 20 22 23 24 25 25 26 27 28 29 30 31 32 32 33 35 36 37 38 40 41 41 41 42
23 24 24 23 22 22 23 22 22 22 21 21 22 22 22 22 22 21 22 23 23 23 24 26 27 28 29 29 30 31 32 33 34 35 36 37 38 39 40 41 42 42 42 43
22 23 22 23 23 21 21 22 23 22 21 22 23 23 22 23 23 23 23 24 25 26 27 28 29 29 30 31 32 33 34 35 36 37 38 39 40 40 41 42 43 43 44 44
23 23 24 24 24 23 23 23 23 23 22 23 24 24 23 22 23 24 25 26 27 28 29 30 30 31 32 33 34 35 36 37 38 39 40 41 41 42 43 44 44 44 45 45

GEFSCGP_500_meanwind_108.txt.gz
Wind_Speed
9 9 10 11 12 11 11 12 12 13 14 15 14 14 13 12 11 9 7 4 1 1 5 8 10 13 14 13 12 11 11 9 8 6 4 4 3 3 4 5 5 6 7 8
10 10 11 12 12 12 12 13 13 13 13 14 13 13 12 11 9 7 6 4 1 2 5 8 10 11 12 12 11 10 10 8 7 5 4 3 3 3 3 4 4 5 6 6
10 10 12 12 12 12 12 13 13 14 14 13 12 11 12 10 9 7 4 3 2 4 7 8 9 10 11 11 10 9 8 7 6 5 4 3 2 2 2 2 3 4 5 6
11 12 12 11 12 13 12 13 13 13 13 12 12 11 11 9 7 5 2 3 3 4 6 7 8 10 10 9 9 8 7 6 6 5 4 3 2 1 0 1 2 4 5 6
11 12 12 12 12 13 12 13 13 12 12 10 10 11 10 9 6 4 1 2 3 4 5 6 8 10 10 9 8 7 6 5 5 5 4 3 2 1 0 1 2 4 5 7
12 12 11 11 11 12 12 12 12 11 11 9 9 9 8 7 6 3 0 1 2 3 4 5 7 9 8 8 8 7 6 6 5 4 3 2 1 0 0 1 3 4 6 8
11 12 12 12 12 12 12 12 12 11 10 8 8 8 7 6 6 3 2 2 3 4 4 5 7 8 8 8 7 7 6 6 5 4 3 2 1 0 1 2 4 5 7 9
11 10 11 12 12 12 12 12 12 13 11 8 8 7 6 5 5 4 4 3 3 4 4 5 6 7 7 7 7 6 6 5 5 4 3 2 1 1 2 3 5 6 8 9
13 11 11 12 12 12 13 13 13 13 12 10 8 7 6 6 6 5 4 4 4 4 5 6 6 7 7 7 7 6 6 6 5 4 3 2 2 2 3 4 6 7 9 10
15 14 13 12 13 13 14 14 15 14 14 12 8 8 8 7 6 5 5 5 5 6 6 7 7 7 7 7 7 6 6 5 4 4 3 3 3 4 4 6 7 9 11 13
17 16 14 15 15 15 15 15 15 15 15 14 11 9 9 8 7 7 6 6 6 6 7 7 8 8 7 7 7 7 6 6 5 5 5 5 5 6 7 8 10 12 14 15
19 18 17 16 16 17 16 16 16 16 15 14 13 10 10 10 8 7 7 7 8 8 9 9 9 9 8 8 7 7 7 7 7 7 7 7 7 8 9 11 13 14 16 17
20 19 17 16 16 16 17 17 17 17 16 15 14 11 11 10 9 8 8 9 9 10 11 11 11 11 10 10 9 9 9 9 9 9 9 9 10 11 12 13 15 17 18 19
20 19 17 16 16 17 18 18 18 18 17 16 14 13 12 12 11 11 11 11 12 12 12 13 13 13 12 12 12 11 11 11 11 12 12 12 13 14 15 16 17 19 20 22
19 18 18 18 18 19 19 18 19 19 18 17 16 16 14 14 14 13 14 14 14 14 15 14 14 14 14 14 13 13 13 13 13 14 14 14 15 16 17 18 19 21 23 24
20 20 19 19 20 21 20 18 19 19 18 17 16 16 15 15 15 15 15 15 15 16 16 16 15 14 15 15 15 14 15 15 16 16 16 17 18 19 20 21 22 23 25 26
21 21 19 19 20 20 19 18 19 19 18 18 17 16 17 16 16 16 16 16 16 16 16 16 16 16 16 16 17 17 17 18 18 19 20 20 21 22 22 23 25 26 27 29
22 22 20 19 19 19 16 17 19 18 18 17 16 16 16 16 16 17 17 17 18 18 18 18 18 18 18 18 18 19 19 20 20 21 22 23 24 25 25 26 28 29 30 31
21 21 21 21 20 18 17 19 19 18 17 16 15 15 16 17 17 16 17 18 19 20 20 20 20 20 20 20 21 21 21 21 22 23 24 25 26 27 28 29 30 31 32 33
21 22 23 22 22 20 17 19 19 18 16 15 16 16 17 18 18 18 19 19 20 21 22 22 22 22 22 22 22 22 23 23 24 25 25 27 28 29 30 31 32 33 34 35
22 22 23 24 23 21 18 19 19 19 17 17 18 19 19 18 19 20 21 21 22 22 22 22 23 23 24 24 24 24 24 25 26 27 28 29 30 31 32 33 34 35 36 37
22 23 23 23 23 21 19 19 20 19 19 19 19 19 19 19 20 21 22 23 23 23 24 24 24 24 25 25 24 25 26 27 28 29 30 31 32 33 34 35 36 37 38 38
22 22 21 22 21 20 19 19 20 20 20 20 20 20 19 20 21 22 23 24 23 24 25 25 26 26 26 25 26 27 28 28 29 30 31 33 34 35 36 38 38 39 40 40
21 21 21 20 20 19 18 18 19 20 21 21 21 21 22 22 23 24 25 25 24 24 25 27 27 26 27 27 27 29 30 30 31 33 34 35 36 37 39 40 41 42 42 43
20 20 20 20 19 19 19 19 19 20 21 21 22 23 24 24 25 25 26 26 25 25 26 27 28 27 28 28 29 30 31 33 34 35 36 38 39 40 41 42 43 44 44 45
21 21 20 20 20 20 19 19 20 21 21 21 21 22 24 25 25 26 26 27 27 27 27 27 28 29 30 31 32 32 34 35 35 37 39 40 41 43 44 45 45 45 46 46

GEFSCGP_500_meanwind_114.txt.gz
Wind_Speed
11 10 9 9 9 9 10 10 12 14 15 16 17 17 17 15 13 10 8 7 5 2 3 6 10 13 16 17 17 18 18 18 16 13 11 10 9 9 8 7 6 4 3 3
11 10 11 10 10 10 10 11 13 15 15 15 14 14 14 13 11 9 7 6 4 1 2 5 8 12 14 15 16 17 18 17 15 12 11 10 8 8 7 6 5 4 3 2
12 12 12 11 10 10 10 11 13 14 14 13 12 12 12 12 9 8 7 5 3 2 4 5 6 9 12 15 17 17 17 16 14 12 11 11 9 7 7 5 4 3 3 2
14 13 12 11 11 10 10 11 12 13 13 13 11 11 11 10 8 7 6 5 2 1 2 5 6 7 11 15 15 15 15 14 13 12 11 10 9 8 7 6 4 3 2 1
14 14 13 12 12 11 11 12 12 12 12 11 10 9 10 9 8 6 4 3 1 1 2 3 5 6 10 12 13 13 13 13 12 12 11 10 9 8 7 6 4 3 2 1
15 14 14 13 12 11 11 11 11 11 10 10 10 8 9 8 7 6 4 3 1 1 2 3 4 6 9 10 11 12 12 11 11 11 11 10 9 8 8 6 5 3 2 1
15 15 14 14 13 12 11 10 10 10 9 10 10 8 8 7 6 5 4 3 1 1 2 4 5 6 8 10 10 11 11 11 11 11 10 10 9 9 8 6 5 4 3 2
16 15 15 14 13 13 11 10 9 9 9 10 11 9 8 7 6 5 4 3 1 2 2 3 5 6 8 9 10 10 10 10 11 11 10 10 9 9 8 6 5 4 4 4
17 16 16 15 14 13 12 11 11 10 9 9 10 10 9 8 7 6 5 4 2 3 3 4 5 6 8 9 9 10 10 10 10 10 10 10 9 8 8 7 7 6 6 7
20 18 17 16 15 14 13 13 12 10 10 9 10 10 10 10 8 7 7 5 4 4 4 4 5 7 8 8 9 10 10 10 10 10 10 10 10 9 9 9 9 9 9 10
21 20 19 18 17 15 15 14 14 13 13 10 10 11 12 11 10 8 7 7 6 5 6 6 7 7 8 9 9 10 10 11 11 11 11 11 11 11 11 11 12 12 12 13
23 22 21 19 19 19 18 16 15 15 15 13 11 12 14 12 11 10 9 9 8 8 8 8 8 9 9 10 10 10 11 12 12 12 13 13 13 13 13 14 14 14 15 15
25 25 22 20 20 20 19 18 17 17 16 15 12 13 15 13 12 11 10 10 10 10 10 9 10 10 11 11 12 12 13 13 14 14 14 15 15 16 16 17 17 18 18 19
26 26 24 21 19 19 19 18 18 18 16 14 14 14 15 14 13 12 12 12 12 11 11 11 11 12 12 12 13 14 14 15 16 16 17 17 18 19 19 20 20 21 21 22
27 27 25 24 22 21 20 18 18 17 16 15 14 15 15 15 15 14 14 13 13 13 13 13 13 13 14 14 15 16 16 17 18 19 20 20 21 21 22 22 23 23 24 24
26 25 24 24 24 22 21 19 18 18 18 16 15 15 17 18 17 16 15 15 15 15 15 15 15 15 16 17 17 18 19 19 20 21 22 22 23 23 24 25 25 26 26 27
27 25 23 22 22 21 19 18 18 19 19 18 16 16 17 18 19 18 17 16 16 17 16 16 16 17 17 18 19 20 21 22 22 23 24 25 25 26 26 27 28 28 29 29
26 26 25 22 22 22 18 18 19 18 18 19 18 18 18 18 18 19 19 18 18 18 18 18 18 18 19 20 21 22 23 24 25 26 26 27 28 28 29 29 29 30 30 30
25 25 24 24 23 21 20 19 18 18 17 18 18 18 18 18 18 19 20 19 20 20 20 20 20 21 22 22 23 25 25 26 27 28 29 30 30 30 30 31 31 32 31 31
24 26 26 24 23 21 21 20 19 19 18 18 19 19 20 19 20 21 21 21 21 22 22 22 23 24 25 26 27 27 27 28 30 31 32 32 32 32 32 33 33 33 32 32
24 25 25 23 21 21 22 20 19 19 20 19 20 21 21 21 21 22 22 22 22 23 24 24 25 26 27 28 28 28 28 30 31 32 33 33 33 33 34 34 34 34 34 34
22 23 23 22 22 22 22 21 22 21 21 21 22 22 22 22 23 23 24 24 24 24 25 26 27 28 28 29 29 30 30 31 32 33 33 33 34 35 35 34 35 35 36 37
22 22 23 22 22 23 22 23 23 23 22 22 22 23 23 24 24 25 25 26 26 26 26 27 28 29 30 30 30 32 32 33 33 34 34 34 35 35 36 36 37 38 39 39
22 22 21 21 23 24 24 23 23 23 22 22 22 24 24 24 25 25 26 28 28 28 28 29 29 29 30 31 31 32 33 34 35 35 35 35 36 37 37 38 38 39 40 41
20 20 20 21 22 22 23 23 23 23 23 23 23 23 24 25 26 26 27 28 29 30 31 31 31 32 32 33 33 34 35 36 36 36 36 36 37 38 39 39 40 41 42 43
20 20 20 21 21 21 20 21 22 22 21 23 23 24 24 25 26 27 28 29 30 31 31 32 33 33 33 34 34 35 36 36 37 37 38 38 39 40 41 41 42 43 44 45

GEFSCGP_500_meanwind_120.txt.gz
Wind_Speed
12 11 9 8 9 11 12 11 12 13 16 19 19 17 17 19 19 19 18 17 15 13 11 8 8 10 11 12 13 16 17 17 16 15 14 13 12 11 10 9 8 7 6 6
12 11 10 10 12 13 11 12 14 14 16 18 17 15 16 17 19 18 17 15 14 11 9 6 5 7 8 11 13 14 15 16 15 14 13 12 11 10 9 8 8 7 6 5
12 10 10 12 13 12 11 13 13 15 15 15 15 14 15 17 17 16 15 13 12 10 8 4 4 6 7 9 12 13 13 14 14 14 12 11 10 8 8 7 8 7 5 4
14 13 13 14 13 12 13 13 13 14 14 15 12 13 16 18 16 15 15 13 10 9 7 4 2 4 5 7 11 13 13 14 14 13 12 10 8 8 8 7 7 7 5 5
14 13 15 16 14 14 15 13 13 14 14 15 11 10 15 16 14 14 14 12 10 8 6 4 0 2 3 6 9 11 13 13 13 12 11 10 9 9 8 8 7 7 6 6
16 15 16 16 15 14 13 13 12 15 16 16 8 8 13 14 14 14 13 11 10 7 6 4 1 1 3 5 7 9 11 12 12 12 12 12 11 10 9 8 7 7 6 5
15 16 16 16 15 14 14 13 13 16 18 12 6 7 11 13 15 13 13 10 8 6 5 4 2 1 2 4 7 8 9 11 12 12 11 12 11 10 9 8 7 7 5 5
14 16 15 16 15 15 14 13 14 14 16 16 11 10 11 11 13 13 13 9 8 6 4 3 2 0 2 4 6 7 8 10 11 11 10 10 10 10 9 8 8 7 6 5
16 17 16 16 16 15 14 14 13 15 13 13 15 11 10 11 12 14 12 9 7 6 5 3 1 1 2 4 5 6 7 8 9 10 10 10 10 10 10 9 8 8 7 7
18 19 17 17 15 16 15 14 14 15 14 13 16 15 10 10 12 15 12 10 8 6 5 4 2 2 3 4 5 6 7 8 8 9 10 10 10 10 10 10 9 9 9 9
22 21 20 19 18 17 16 15 16 16 15 14 18 19 15 11 12 12 13 11 9 8 6 5 4 4 4 4 5 7 7 8 8 8 9 10 11 11 11 11 11 11 11 11
24 24 25 24 21 20 20 19 18 19 19 17 16 19 16 14 14 11 12 12 11 9 8 7 6 6 6 6 6 7 7 8 8 9 10 11 11 12 12 13 13 13 14 14
27 28 27 26 25 22 22 20 20 20 20 18 16 20 19 18 15 12 12 12 12 11 10 9 9 8 8 8 8 9 9 9 10 10 11 12 13 14 14 15 15 16 17 17
30 30 29 27 24 22 23 21 21 21 21 19 18 21 22 19 15 15 15 13 13 12 12 11 11 10 10 10 11 11 12 12 12 13 13 14 15 16 17 17 18 19 20 20
29 31 30 28 26 25 26 25 23 23 21 20 19 21 21 22 18 16 17 15 15 14 13 13 12 12 12 12 13 13 14 14 15 15 16 16 17 17 18 19 20 21 22 23
29 29 29 29 28 27 26 22 22 21 19 19 20 21 22 23 21 19 19 18 16 15 14 15 14 13 13 14 14 15 15 16 17 17 18 18 19 19 20 21 22 23 24 25
31 29 29 28 28 29 27 21 20 19 17 19 21 21 24 24 23 22 20 18 15 17 17 16 16 15 15 15 16 17 17 18 18 19 20 21 22 22 23 23 24 25 26 27
28 29 28 29 30 32 26 22 20 20 22 22 23 24 26 26 24 22 20 20 18 18 18 18 17 17 18 18 18 18 19 19 19 21 22 23 24 24 25 26 27 28 29 30
27 28 29 28 27 27 25 24 24 23 23 25 26 25 26 26 25 23 21 21 19 18 20 20 19 19 19 19 20 20 20 21 22 23 24 25 26 26 27 27 28 29 31 31
24 27 29 30 29 26 24 26 27 25 26 26 26 25 25 26 25 24 21 21 20 19 20 20 21 21 20 20 21 22 23 23 24 25 26 28 29 29 29 29 30 31 31 32
25 28 29 29 30 29 27 27 28 27 26 26 25 25 24 25 26 24 23 21 21 21 21 22 23 23 23 23 23 24 24 25 26 27 27 28 29 30 30 31 31 33 33 33
26 28 28 27 28 29 27 25 26 24 23 24 23 24 24 24 24 25 24 22 22 23 23 23 24 24 25 25 26 25 25 26 27 28 30 31 31 32 32 32 33 34 35 35
26 26 25 26 26 28 28 27 25 24 23 21 23 24 24 25 25 25 25 24 25 25 25 25 25 26 26 27 27 28 28 29 30 31 31 32 33 34 34 34 34 35 36 38
23 22 24 26 27 27 27 27 27 27 26 22 23 24 26 26 26 26 26 26 26 26 26 27 27 28 28 28 29 30 31 32 32 32 33 33 34 35 36 35 35 37 38 38
22 20 23 26 25 25 24 22 23 23 22 24 24 24 25 25 26 27 27 27 27 27 28 28 29 30 30 30 31 31 32 33 34 35 35 36 36 37 37 37 37 38 39 40
20 19 18 18 20 22 22 21 20 22 22 23 24 25 25 27 27 27 28 28 28 28 29 29 29 30 30 31 32 33 35 36 36 37 37 37 38 39 38 38 38 38 39 41

GEFSCGP_500_meanwind_126.txt.gz
Wind_Speed
17 15 13 12 11 11 9 9 10 11 14 16 17 17 18 16 17 17 17 16 15 15 15 13 11 9 10 13 16 16 19 19 17 17 17 17 16 14 13 12 11 12 11 10
17 14 14 14 12 11 9 10 10 12 15 16 18 18 18 18 16 16 16 15 14 13 12 11 9 6 7 11 13 14 15 17 17 17 17 17 16 14 13 13 12 12 11 10
15 16 17 16 14 12 10 10 12 13 16 18 18 19 18 16 15 15 15 14 13 12 10 9 6 3 5 9 11 12 12 16 17 18 18 17 15 14 13 13 12 12 12 11
16 17 18 16 14 12 10 11 13 15 16 17 18 19 18 17 14 13 12 10 11 10 9 7 3 2 3 6 8 10 12 14 16 17 17 16 15 15 14 14 13 13 13 12
16 18 18 17 14 13 11 12 14 16 16 17 16 18 18 16 13 9 8 8 10 9 8 6 3 1 4 5 7 11 12 14 15 17 17 17 16 15 13 15 14 13 13 13
17 18 18 16 15 14 12 14 15 16 16 17 15 17 15 13 9 6 6 7 8 8 7 6 4 2 4 7 8 11 12 14 15 16 17 16 16 14 14 15 14 14 13 13
17 17 16 15 15 14 14 15 17 17 16 15 15 15 12 8 6 4 5 5 6 6 6 4 4 3 4 6 7 10 12 13 14 15 16 16 15 15 15 14 14 14 13 13
16 15 17 16 15 14 15 16 16 17 16 15 15 14 11 8 6 5 5 6 5 5 5 4 3 3 4 5 6 8 10 13 14 15 16 16 15 14 15 14 14 13 13 13
16 16 17 18 16 16 16 16 16 17 17 17 14 13 9 8 6 5 5 6 5 3 3 3 3 3 3 5 6 7 10 12 13 14 16 15 15 15 15 14 13 13 14 13
18 17 18 19 20 18 18 17 17 18 19 18 15 13 11 9 6 6 5 5 4 2 1 1 2 2 3 5 5 6 9 11 12 13 14 14 15 15 15 15 14 14 14 13
22 21 19 21 21 19 19 19 20 20 20 19 18 14 11 10 9 8 6 5 4 3 1 1 2 3 4 5 6 6 8 10 11 12 12 13 14 15 15 15 15 14 14 13
25 25 23 23 22 21 21 20 20 21 21 21 20 17 14 13 12 11 9 6 4 3 2 3 3 4 5 6 6 7 8 9 11 11 12 13 14 14 15 15 15 15 15 15
28 29 27 24 24 24 24 23 23 22 22 22 21 20 18 16 14 13 10 7 5 4 3 4 5 5 7 7 7 8 8 9 10 11 11 12 13 14 15 15 16 16 16 16
31 30 30 28 26 25 26 25 25 25 24 24 22 21 19 18 16 14 11 9 8 6 5 6 6 7 8 9 9 9 10 10 11 11 12 12 13 14 15 16 17 17 18 18
31 31 32 32 30 28 28 28 28 27 26 25 24 23 20 19 18 15 12 11 11 9 8 7 7 8 9 10 10 11 11 11 12 12 13 13 14 15 16 17 18 19 19 20
32 32 31 31 31 31 31 30 30 30 27 26 26 26 23 22 20 19 15 13 12 11 9 9 9 10 11 11 12 12 13 13 13 14 15 15 16 17 18 19 19 20 21 22
32 33 32 31 30 31 32 31 31 29 28 28 28 26 25 24 21 18 16 13 13 11 11 11 10 11 11 12 13 14 15 15 15 15 16 17 18 19 19 21 22 22 23 24
31 33 33 32 30 30 28 30 29 29 29 29 28 27 27 26 23 20 17 15 14 12 13 12 12 12 13 14 14 15 16 16 16 17 17 17 19 21 21 22 23 24 24 25
29 29 30 30 30 29 27 27 27 27 28 29 29 26 26 26 24 21 18 15 14 13 12 12 13 15 15 16 16 17 17 18 18 18 19 19 21 22 23 24 25 26 27 28
26 27 28 28 30 28 25 26 26 28 28 28 28 26 25 24 24 21 18 17 15 14 14 15 16 17 17 17 18 19 20 20 20 21 21 22 23 23 24 25 26 28 28 28
24 26 26 27 27 26 24 26 27 28 27 27 28 28 28 26 23 20 19 17 17 17 16 16 17 17 18 19 19 20 21 22 23 23 24 24 24 24 25 25 27 28 28 29
20 22 23 24 25 24 23 24 25 28 28 28 28 28 27 25 23 22 20 19 18 17 17 18 18 18 20 21 21 21 22 23 24 25 26 26 27 26 26 27 27 28 29 31
17 18 20 22 22 22 22 22 23 24 25 26 27 26 27 27 24 22 21 20 19 18 18 18 19 20 21 22 22 23 24 26 26 26 27 27 27 27 28 29 29 31 32 33
16 15 16 19 20 20 20 21 21 21 23 24 23 23 24 23 22 21 21 20 19 18 19 20 21 21 22 23 24 24 26 28 28 28 28 28 28 29 30 31 32 33 34 34
15 15 15 16 17 17 16 18 19 18 20 20 19 19 20 19 18 18 17 17 17 19 20 21 20 21 23 24 25 26 27 28 29 29 30 30 30 30 32 33 34 35 35 36
14 13 13 13 13 14 14 14 15 15 15 14 14 14 15 15 16 15 15 16 17 19 19 20 21 22 24 25 26 27 28 29 30 32 33 33 34 34 35 36 37 38 37 38

GEFSCGP_500_meanwind_132.txt.gz
Wind_Speed
21 20 18 18 18 19 19 18 16 15 16 16 15 15 14 15 15 16 16 16 17 17 16 16 15 14 13 13 14 17 18 20 22 22 22 21 20 19 18 17 16 14 13 13
20 19 19 20 19 19 19 18 16 16 17 17 16 15 15 16 16 16 16 17 17 17 15 14 14 13 12 12 13 15 18 20 22 22 22 21 21 20 19 17 16 15 14 14
20 19 20 20 20 20 20 19 18 17 18 17 16 14 15 16 17 17 17 16 15 16 14 13 12 11 9 11 13 13 16 20 21 21 22 22 21 20 19 18 17 16 15 15
20 20 20 20 20 20 19 19 18 18 17 17 17 15 14 15 16 16 16 15 14 14 13 11 11 10 9 10 12 13 17 19 20 20 21 22 22 20 19 19 18 17 16 16
19 20 20 20 20 20 19 19 19 18 17 17 16 15 13 13 14 15 14 12 12 13 11 10 9 8 7 8 11 14 17 19 20 20 20 22 22 21 20 20 19 17 17 17
21 22 21 20 20 21 20 20 20 19 18 16 14 15 13 12 13 13 12 11 11 12 9 8 7 5 5 6 9 12 15 17 19 20 21 22 22 21 20 19 18 18 17 17
20 21 21 21 21 21 21 20 20 19 17 16 14 14 12 12 13 12 11 10 10 10 9 7 5 4 4 5 8 11 13 16 18 20 20 21 21 21 20 19 19 18 18 17
18 19 19 20 20 21 21 21 20 19 17 15 14 13 11 12 11 10 9 8 8 9 8 6 4 3 4 6 9 11 13 16 19 21 21 21 20 20 20 19 19 18 18 17
16 17 18 19 20 21 21 21 21 20 18 17 15 13 11 10 9 9 9 8 8 8 7 5 3 2 4 6 9 11 13 15 18 20 21 21 21 20 19 19 19 19 18 18
17 18 19 20 21 21 21 21 21 20 20 19 16 13 11 10 8 8 8 8 8 8 7 6 4 2 3 5 7 10 12 14 15 18 19 20 20 19 19 19 19 19 19 19
18 19 19 20 21 21 22 22 22 22 21 20 17 13 11 9 9 9 9 9 8 8 8 7 5 3 3 4 7 10 11 12 13 15 17 18 19 19 19 19 18 18 19 19
20 20 20 21 22 23 23 22 22 23 22 21 19 14 11 10 10 10 10 10 10 9 9 8 6 5 5 5 6 8 10 10 12 13 15 17 18 18 18 18 18 18 18 19
22 22 21 22 23 24 24 24 23 23 23 22 20 15 13 12 12 11 11 11 11 11 10 8 7 6 7 7 8 9 10 11 12 13 14 15 16 17 17 18 18 17 18 18
24 25 24 24 24 24 23 23 24 25 25 23 20 17 15 14 13 13 12 12 13 12 11 9 9 8 8 9 9 10 11 11 11 12 14 14 15 16 17 17 18 18 19 19
26 26 26 25 26 25 24 25 26 26 25 24 21 19 18 16 15 14 14 14 13 13 13 12 11 11 10 10 11 12 12 13 13 13 14 15 16 16 17 17 18 19 20 20
27 27 27 26 27 27 26 25 26 27 26 25 24 21 20 19 17 16 15 14 14 14 14 14 13 13 13 12 12 13 15 15 15 15 16 16 17 17 17 18 18 19 21 22
28 28 28 28 27 27 26 25 26 27 26 26 25 23 22 21 19 18 17 16 15 15 16 16 16 16 16 16 16 16 16 17 18 18 18 18 18 19 19 20 21 21 23 24
28 29 29 30 29 29 26 25 26 27 26 26 25 24 23 22 21 20 19 18 17 17 17 18 19 19 18 18 17 18 18 19 20 20 20 21 21 21 22 22 23 23 24 25
28 28 28 29 29 29 28 26 26 26 25 25 24 22 22 22 22 22 21 20 19 19 18 19 20 20 19 19 20 20 20 20 21 22 22 23 24 24 24 25 26 27 27 28
27 27 28 28 29 29 27 26 26 26 25 24 24 24 23 22 22 21 21 21 20 21 21 20 21 21 21 21 22 22 22 23 23 24 25 26 26 26 26 27 28 29 30 30
25 25 26 26 27 27 25 24 24 24 23 23 23 23 22 21 21 21 21 21 21 21 22 22 22 22 22 22 22 23 24 24 25 27 27 27 27 27 28 29 29 30 31 32
21 21 22 23 23 22 22 22 22 22 22 22 22 22 21 21 21 21 21 22 22 21 22 23 23 24 24 24 24 24 24 25 27 28 28 28 28 28 29 30 30 31 32 32
20 20 20 21 20 20 20 21 21 20 20 21 21 20 20 20 21 21 22 22 23 24 24 24 24 25 26 25 25 25 26 26 27 28 28 29 30 30 31 32 33 33 34 34
17 18 18 18 18 18 18 18 17 17 18 19 20 19 20 20 21 21 21 22 23 24 25 26 27 27 27 26 25 25 26 27 27 27 28 30 31 32 33 34 34 35 35 36
16 16 15 15 15 16 16 15 15 16 17 18 18 19 19 18 19 20 21 21 22 23 24 25 26 27 27 25 24 24 25 26 26 27 29 30 31 32 33 34 34 36 35 36
15 14 14 14 13 13 14 14 14 15 16 16 17 17 17 17 17 19 20 20 20 21 22 23 23 24 25 25 24 24 25 26 27 28 30 31 32 33 33 34 34 35 37 37

GEFSCGP_500_meanwind_138.txt.gz
Wind_Speed
20 19 18 18 18 18 16 15 15 16 15 14 13 13 14 14 14 15 15 14 14 15 16 17 18 18 17 18 18 18 20 21 22 24 25 25 24 22 21 20 19 18 16 14
20 19 19 19 18 17 15 15 15 16 15 14 13 13 13 14 14 15 15 15 15 16 16 17 18 17 16 17 17 18 19 22 22 23 25 26 25 24 23 21 20 19 17 15
20 20 20 19 17 16 15 15 15 16 15 14 13 13 14 14 14 14 14 15 15 15 16 17 16 15 14 15 16 17 18 19 22 24 25 27 26 25 23 22 22 20 18 17
21 21 20 18 17 16 15 16 16 15 14 13 13 11 14 13 13 14 13 13 13 13 14 13 13 12 12 12 14 15 17 19 21 22 25 26 26 24 23 23 22 21 19 18
20 20 19 18 17 17 17 16 16 15 13 13 13 11 12 13 12 12 13 12 12 12 11 11 10 10 11 11 11 13 16 18 19 21 23 25 25 25 24 23 22 21 19 18
20 19 19 18 18 18 17 16 15 13 12 12 13 11 10 12 12 12 12 12 12 12 11 10 8 8 9 9 10 12 14 16 18 21 24 25 24 24 24 23 22 20 20 19
19 19 19 18 18 17 16 15 12 12 12 12 13 11 11 12 11 12 12 11 11 11 10 9 8 8 7 8 9 11 14 15 18 20 23 24 24 23 23 22 21 20 20 20
18 18 19 18 18 17 16 15 14 12 11 11 14 12 11 11 11 11 11 11 11 10 9 8 7 7 7 7 8 11 12 15 17 19 22 23 22 22 21 21 21 20 19 19
17 18 19 19 19 19 18 17 16 14 12 11 12 12 11 10 10 11 10 10 9 9 7 7 7 6 5 6 7 8 9 13 15 18 21 22 21 21 20 20 19 20 19 19
18 18 20 20 20 20 19 18 17 15 14 12 11 11 9 10 9 10 9 9 8 8 7 7 6 5 4 4 6 7 8 11 13 15 18 20 20 21 20 19 18 19 19 19
19 19 19 19 19 18 19 19 18 16 16 13 11 11 12 10 9 10 10 9 8 8 8 7 6 6 5 3 4 6 7 9 12 13 15 17 18 19 20 19 19 19 18 18
20 19 18 19 20 20 19 18 18 17 17 16 14 13 14 12 10 10 10 9 8 8 7 7 6 6 5 3 4 6 8 9 11 12 14 15 17 18 19 19 18 19 19 18
21 20 19 19 20 21 21 20 19 18 18 17 15 14 16 12 12 11 11 11 10 9 8 8 6 6 5 4 4 6 7 9 10 11 12 14 15 17 17 18 18 18 19 18
22 22 20 18 19 20 21 21 20 20 18 17 17 17 17 15 14 13 12 12 11 10 9 9 8 7 6 6 6 6 7 8 9 10 11 12 14 15 16 17 18 18 18 19
23 23 22 22 22 21 21 21 21 21 20 19 18 18 18 18 16 15 13 13 13 11 10 9 9 9 8 8 8 8 9 9 10 11 12 13 14 16 16 17 18 18 19 19
25 24 23 23 23 22 23 22 22 22 21 21 20 20 20 20 19 17 16 15 14 13 11 10 11 11 11 11 10 10 10 10 11 12 13 14 15 17 18 18 18 18 19 20
26 25 23 22 23 23 24 22 22 22 23 23 22 22 21 22 20 19 19 18 16 15 14 13 12 12 13 13 13 12 12 12 13 13 15 16 17 17 18 19 19 19 20 21
24 23 22 23 23 23 24 23 23 23 23 24 24 24 22 22 21 21 20 20 19 18 17 16 15 14 14 14 14 14 14 14 15 15 16 17 18 19 20 20 21 22 23 23
25 24 23 23 22 23 24 22 22 23 24 24 25 24 24 23 23 23 23 23 22 21 19 19 18 17 17 16 16 16 16 16 16 17 18 19 19 21 22 23 23 24 25 26
24 24 24 23 23 24 25 23 23 24 25 24 24 24 24 25 25 25 24 24 23 22 22 21 21 20 19 18 18 18 18 18 18 19 20 21 22 23 24 25 26 26 27 28
24 23 23 23 23 25 25 23 24 25 25 24 24 24 25 26 26 26 25 24 25 24 23 23 23 22 21 20 20 19 20 20 20 21 22 23 23 25 27 27 27 28 29 30
22 22 22 23 24 26 24 24 24 25 24 23 24 24 24 25 26 26 26 25 25 25 25 24 24 24 23 23 23 22 22 22 23 23 24 24 25 26 27 29 29 30 31 32
23 23 23 23 23 23 23 24 24 24 23 23 23 24 24 24 24 24 25 25 25 25 25 25 26 25 24 24 25 24 24 25 25 26 26 26 27 28 28 30 31 32 33 34
23 22 21 21 21 21 21 22 22 23 23 22 23 23 23 23 23 24 24 24 24 24 25 25 25 25 25 25 25 25 26 27 26 26 27 28 29 29 30 30 31 33 34 35
21 21 20 20 20 19 19 19 19 20 20 21 21 21 22 22 23 23 23 23 23 23 24 25 25 25 25 25 25 26 26 27 27 28 29 29 29 30 31 32 32 32 32 34
19 19 19 19 19 18 18 17 18 18 17 18 19 20 21 21 21 22 22 22 23 24 25 25 25 26 26 26 27 28 28 29 29 29 29 29 29 29 30 31 31 31 33 34

GEFSCGP_500_meanwind_144.txt.gz
Wind_Speed
20 19 17 15 14 14 13 14 15 15 15 15 14 14 15 16 14 15 17 17 17 17 18 20 18 18 19 19 19 18 18 17 17 17 17 17 18 19 19 19 18 18 16 15
21 19 17 17 15 15 15 15 14 15 14 14 15 14 15 16 16 16 18 18 18 18 19 19 17 19 18 19 19 19 18 17 17 17 17 18 18 19 20 20 19 18 17 16
20 16 18 18 17 17 17 17 15 15 14 14 15 15 16 17 17 16 16 17 18 18 18 18 18 17 16 17 17 17 18 18 18 18 17 17 18 19 20 20 20 19 18 17
20 18 18 18 18 17 17 16 16 16 16 15 16 17 17 17 18 16 15 15 17 18 17 16 17 16 16 16 16 15 17 17 17 18 17 18 20 20 20 21 21 20 19 18
19 19 20 19 18 18 17 15 16 17 18 18 18 17 17 17 17 17 16 14 17 17 16 17 17 16 15 15 14 14 17 17 17 18 18 19 20 20 21 21 20 20 19 18
19 19 19 19 18 18 17 17 17 16 16 17 16 16 16 17 17 16 14 14 17 17 16 16 15 15 13 12 13 13 15 16 16 18 19 18 19 20 20 21 20 20 19 19
19 19 18 18 18 18 18 17 16 16 16 16 16 17 17 15 15 16 17 17 17 16 15 15 14 12 10 10 11 11 12 13 14 16 18 18 18 20 20 20 20 20 20 19
16 17 18 18 18 18 18 17 17 16 16 16 18 17 14 12 15 17 18 19 18 16 14 13 12 11 9 9 9 9 9 10 12 15 16 17 17 18 19 20 20 20 20 20
14 15 16 18 17 18 18 18 17 17 18 17 15 12 14 12 13 16 17 17 16 14 13 11 10 9 9 9 8 7 8 9 11 13 15 16 17 18 19 19 19 19 19 19
18 16 16 18 18 18 19 17 17 19 19 17 15 12 12 11 12 14 15 15 14 12 12 10 8 7 7 8 7 7 6 8 10 12 13 15 17 18 18 19 19 19 19 19
22 19 16 18 19 18 19 19 19 17 18 17 16 15 14 12 13 13 14 14 13 12 12 10 7 7 7 6 6 6 6 7 9 10 11 13 15 16 17 18 19 18 18 18
23 21 19 19 19 18 19 20 21 20 20 19 18 20 18 14 14 12 13 14 12 13 11 10 8 7 7 6 5 5 5 5 7 8 10 11 13 14 15 16 17 17 18 18
24 24 23 21 21 20 20 20 22 22 21 19 18 19 18 15 15 11 13 14 15 14 13 11 9 8 8 7 5 4 4 4 5 5 7 10 11 12 13 15 16 17 17 18
26 27 25 22 22 22 21 21 21 21 21 19 19 20 21 18 17 13 15 17 14 14 14 13 11 10 8 7 6 4 3 3 4 5 7 10 11 12 13 14 15 17 17 18
28 27 27 26 24 22 21 20 21 22 21 21 23 22 21 20 19 16 17 17 15 15 14 14 13 11 9 8 7 5 4 3 3 5 6 8 10 11 11 12 13 16 16 16
30 29 28 27 25 23 21 21 21 21 20 22 22 23 22 21 20 20 18 18 18 16 15 14 13 12 11 10 8 7 6 6 6 5 7 8 9 11 12 12 13 15 16 17
30 30 29 27 24 25 22 20 21 20 21 23 24 25 25 24 23 24 23 20 19 18 17 16 14 13 12 12 11 10 9 9 9 9 9 10 11 12 13 14 14 15 16 17
29 29 29 26 26 26 23 24 23 23 24 24 28 29 28 28 27 27 25 22 20 20 18 17 16 15 14 13 13 13 12 11 11 12 12 11 12 13 15 16 16 17 17 18
29 28 28 28 26 26 26 25 24 24 25 25 27 27 27 27 27 27 25 22 21 21 20 19 18 17 16 16 16 15 15 14 14 14 14 14 14 15 16 17 17 18 19 20
28 28 30 30 29 29 28 27 26 27 29 27 27 27 27 27 27 27 25 24 24 23 22 21 20 19 18 18 17 17 17 16 16 16 16 16 17 17 18 19 18 20 21 22
27 28 29 29 29 30 32 29 28 28 28 27 27 26 26 26 24 25 26 26 25 25 23 23 22 21 20 20 19 19 18 18 18 17 18 18 19 19 19 20 21 21 22 23
27 28 29 29 30 33 31 28 29 27 25 25 25 26 26 25 24 25 25 26 26 25 24 24 24 23 22 21 21 20 20 20 20 20 20 20 20 20 21 21 21 22 23 24
26 27 28 29 30 30 27 25 24 24 23 23 23 23 25 25 25 25 24 25 25 26 26 25 25 24 24 24 23 22 22 22 22 22 22 21 22 23 23 23 24 25 26 26
27 26 27 28 28 26 24 25 24 24 24 24 24 24 25 26 25 24 23 24 24 25 25 25 25 25 25 25 25 24 23 23 24 24 24 24 24 24 25 25 26 28 28 29
26 28 27 26 26 25 23 24 24 22 22 23 23 23 23 23 24 23 23 23 23 23 24 24 24 24 25 25 25 25 24 25 25 26 27 27 26 26 27 27 27 28 29 30
24 23 24 23 22 22 23 23 23 22 21 22 22 22 22 23 23 22 21 21 22 22 21 21 22 22 23 24 25 25 24 25 25 25 26 27 27 28 29 29 29 30 30 30

GEFSCGP_500_meanwind_150.txt.gz
Wind_Speed
24 22 19 18 18 18 19 19 18 16 15 15 15 15 17 18 18 18 17 17 16 15 14 12 12 12 12 12 11 12 13 13 13 13 14 14 15 16 16 16 16 16 16 15
24 20 19 21 21 20 20 19 17 16 13 13 15 16 18 18 19 19 18 18 17 15 14 12 12 12 12 13 13 13 13 14 14 14 16 16 16 17 16 17 17 17 17 17
22 20 23 23 22 21 20 18 16 15 13 14 15 18 18 19 19 19 18 17 17 15 13 13 12 12 12 13 13 12 12 13 14 15 16 17 16 16 16 16 17 18 18 18
23 23 24 23 21 21 19 18 17 16 16 16 17 17 17 18 19 18 17 17 15 14 15 12 11 12 12 13 12 12 12 13 14 15 16 17 17 17 18 18 18 19 19 19
22 23 23 22 20 20 19 18 18 18 19 19 19 18 17 17 17 17 17 16 14 14 13 12 12 13 13 13 13 13 13 14 15 16 17 17 17 19 19 18 17 19 20 19
24 25 24 21 20 20 19 19 20 21 21 21 20 20 19 18 18 18 18 16 14 15 13 12 12 13 12 12 13 13 14 14 15 15 15 17 18 19 20 19 19 20 21 20
24 24 23 22 21 20 20 20 21 22 22 21 21 22 22 21 20 19 19 17 14 12 10 11 11 12 11 11 12 12 12 13 14 15 15 17 19 19 19 20 20 20 21 21
22 22 22 21 21 20 21 21 22 22 21 19 20 21 19 19 20 19 18 15 12 11 10 10 9 9 9 10 10 10 11 11 13 15 16 17 20 20 19 21 21 21 21 21
21 20 21 20 19 20 20 21 20 21 20 19 18 18 17 17 19 19 17 14 12 10 10 8 7 8 8 9 9 9 10 11 12 14 15 17 19 20 19 21 22 21 22 21
20 21 21 20 20 20 19 19 20 21 20 20 18 16 15 15 15 14 15 14 11 9 7 7 6 7 7 7 7 7 8 9 11 13 15 16 17 19 20 21 22 21 20 21
22 22 22 22 21 20 19 21 22 21 20 20 20 17 14 12 12 12 12 12 10 9 7 6 6 6 7 6 6 7 7 7 8 10 13 14 16 17 19 20 20 21 20 21
22 23 23 23 22 20 20 21 21 22 21 21 21 18 14 13 12 12 11 10 10 8 6 6 6 7 7 6 5 6 6 6 7 8 10 12 14 16 17 19 19 20 21 21
24 25 24 25 24 23 22 22 22 22 22 22 21 19 17 15 14 12 11 10 9 8 8 8 7 6 7 5 4 5 6 6 6 7 10 12 13 14 16 18 19 21 21 21
26 27 26 26 25 24 24 24 23 23 24 23 22 20 19 17 15 14 13 12 11 9 8 9 8 6 5 5 4 4 4 6 6 7 8 11 13 15 17 18 18 20 21 21
29 29 29 28 27 27 27 26 24 24 25 24 22 20 19 17 14 13 13 12 10 10 8 8 7 7 7 5 4 4 3 4 5 6 7 9 12 14 15 17 18 18 20 20
31 31 30 30 28 28 27 26 27 27 26 24 22 21 19 18 18 17 15 14 13 12 10 9 8 8 8 8 6 5 4 4 4 6 7 8 10 12 14 15 17 18 18 18
34 33 31 31 30 30 29 28 28 28 28 26 24 22 20 19 18 16 16 16 14 13 12 11 10 10 10 10 8 7 7 6 6 7 8 9 10 12 13 15 16 16 17 18
33 32 32 31 32 32 31 30 29 29 30 27 25 22 22 21 20 19 18 17 16 15 14 13 12 10 10 10 10 10 10 9 8 8 9 10 10 11 12 13 14 16 17 17
34 32 33 33 33 32 32 31 29 29 27 25 23 22 21 20 19 18 19 18 18 16 15 15 14 12 11 11 11 11 12 11 11 10 10 11 11 12 13 15 16 16 17 18
35 34 33 33 33 34 33 31 30 28 27 25 23 22 21 20 19 19 19 19 19 19 17 16 14 14 14 14 13 13 13 13 13 13 12 12 12 12 14 15 17 17 17 18
36 34 34 34 33 33 31 30 29 30 27 26 23 22 23 22 20 19 18 19 19 18 17 16 15 15 15 15 15 15 15 14 14 14 14 14 14 15 16 17 18 18 19 20
34 34 34 33 33 31 29 28 29 29 28 27 24 23 22 21 20 19 18 19 18 18 17 17 16 16 17 17 17 16 16 16 16 16 16 16 16 17 18 18 19 19 20 21
32 33 32 32 30 28 28 27 27 28 27 26 24 23 22 22 21 19 19 19 19 18 18 19 19 19 18 19 19 19 18 18 18 18 18 18 18 18 19 19 19 20 20 20
28 29 29 28 29 28 27 26 26 25 24 23 23 23 22 21 20 19 19 19 19 19 20 19 19 19 19 19 19 20 19 19 20 20 20 20 20 21 20 20 20 21 21 21
27 26 26 26 25 25 25 25 24 24 23 22 21 21 20 20 19 18 18 18 18 18 18 18 18 18 19 19 19 19 20 20 20 21 21 21 21 22 21 21 21 21 22 23
25 24 24 23 21 20 20 21 21 22 21 21 19 18 19 18 18 18 17 17 17 16 16 17 17 18 18 18 19 19 19 20 21 21 22 23 23 23 23 23 23 24 24 24

GEFSCGP_500_meanwind_156.txt.gz
Wind_Speed
28 26 24 23 23 23 22 21 21 22 24 24 23 21 20 19 17 15 13 12 12 12 13 14 14 12 13 12 13 14 14 14 15 16 17 16 15 15 15 15 14 14 13 14
27 25 24 25 24 23 22 20 20 22 24 23 23 21 20 19 17 14 13 13 13 13 15 15 14 14 14 14 13 14 14 15 16 16 18 19 18 17 17 16 15 14 14 15
27 25 26 26 25 24 22 20 20 23 24 24 23 22 20 19 18 15 14 13 13 14 15 16 15 15 15 15 15 15 15 16 16 17 18 19 19 17 16 16 16 15 15 16
29 27 27 26 25 24 22 21 22 25 25 24 23 22 20 18 17 15 14 13 14 15 15 16 16 16 15 15 15 15 15 15 16 17 18 18 19 20 18 18 18 17 16 17
28 27 27 26 24 23 23 24 25 26 26 25 24 22 19 18 16 14 14 15 15 15 15 15 16 17 17 16 16 15 15 15 16 18 18 18 18 20 20 21 19 18 17 18
28 28 27 26 26 25 26 27 27 27 26 25 24 23 20 18 16 16 16 16 15 15 15 16 17 17 17 17 17 16 16 16 16 17 17 17 17 18 20 21 21 20 18 18
27 27 27 27 27 27 27 27 27 27 26 25 24 24 21 18 18 18 17 16 16 16 16 16 17 17 17 17 16 16 16 17 18 17 18 19 19 19 20 21 22 21 20 20
26 26 26 26 26 26 26 27 26 26 25 23 23 22 21 19 19 18 17 16 17 17 17 16 16 17 16 15 15 14 15 15 17 17 17 19 20 21 21 21 22 22 22 21
26 25 25 25 25 26 27 26 25 25 24 23 22 20 19 18 18 17 17 17 17 17 16 15 16 16 14 13 13 13 13 13 14 16 16 18 19 19 21 21 21 22 23 22
26 25 25 25 27 27 27 26 26 25 23 22 20 18 17 16 15 15 15 15 14 13 12 12 13 13 13 13 13 12 12 11 12 14 15 16 17 18 19 21 21 23 23 23
26 26 26 26 26 26 27 27 26 25 23 21 19 16 14 14 15 14 14 13 12 12 11 10 11 11 11 11 11 11 12 12 11 12 14 15 17 17 19 21 21 22 22 22
25 27 27 27 27 27 27 26 24 23 21 19 18 15 13 13 12 12 12 12 11 11 9 9 10 9 9 10 10 9 11 11 11 12 13 15 16 17 18 20 21 21 22 22
26 27 27 28 28 27 27 25 24 21 20 19 18 15 13 12 12 12 11 11 10 9 9 9 10 9 9 9 8 8 9 9 10 11 12 13 14 15 17 18 19 20 21 22
26 26 26 26 26 26 26 25 23 22 21 19 17 16 14 14 13 13 12 11 10 9 9 10 9 9 9 9 9 8 8 8 9 9 10 11 12 13 15 17 18 19 20 21
27 26 26 25 25 26 25 24 24 23 21 19 17 16 15 14 14 14 13 12 11 11 10 9 9 9 9 8 8 8 7 8 8 8 8 9 11 11 14 15 17 18 19 20
28 27 27 27 26 26 26 25 24 23 22 20 18 17 16 15 15 13 12 12 12 11 10 9 9 10 9 8 8 8 8 8 8 8 9 10 10 12 14 15 16 17 18 19
29 28 28 28 28 27 28 26 25 24 23 21 19 17 16 15 15 14 13 13 13 12 11 11 11 11 11 10 10 10 9 8 9 8 8 9 10 11 12 13 14 15 18 19
31 30 29 28 29 31 28 27 26 25 23 21 20 19 17 16 15 14 14 14 14 14 14 13 12 12 12 12 12 11 10 9 8 8 8 8 9 10 11 11 13 14 15 17
33 32 31 31 31 31 29 28 27 25 24 23 21 20 19 18 17 16 16 15 14 14 14 14 13 13 13 13 12 11 10 10 10 10 9 9 9 10 10 11 12 13 14 16
33 33 33 33 32 32 29 27 26 25 24 23 22 21 20 19 19 18 17 17 16 15 15 15 15 14 14 14 13 12 11 11 11 12 11 11 12 12 12 12 13 14 15 16
33 33 33 33 33 31 29 28 27 26 24 23 22 21 20 20 19 18 18 17 17 16 16 16 15 15 14 13 13 13 13 13 12 13 13 14 14 14 14 14 15 15 17 18
33 33 32 33 33 31 28 29 28 27 25 24 22 22 21 21 20 20 19 18 17 17 17 16 16 16 16 15 14 14 14 15 15 15 15 15 15 15 16 16 16 17 17 18
33 33 32 31 31 29 28 28 27 26 25 24 23 22 21 22 21 21 20 19 19 19 19 19 18 17 17 17 16 16 16 16 17 17 17 17 17 17 17 17 18 18 18 19
31 33 32 31 30 28 27 27 26 24 23 23 23 22 21 21 22 22 20 20 20 20 19 18 18 17 17 17 17 17 18 18 17 18 18 18 18 18 18 18 19 19 19 20
28 29 31 31 30 28 27 27 26 25 24 24 23 23 22 21 21 22 21 20 20 19 19 19 18 17 17 17 17 17 18 17 17 18 19 18 18 18 19 20 21 21 22 22
27 27 27 28 29 28 26 26 25 25 24 24 23 22 22 21 22 21 20 20 20 19 18 18 18 18 18 18 18 17 17 18 18 18 18 19 19 19 20 21 21 21 22 22

GEFSCGP_500_meanwind_162.txt.gz
Wind_Speed
27 27 25 24 24 24 22 21 21 22 20 18 17 16 15 14 12 12 12 12 12 13 14 13 11 11 10 9 8 9 10 11 11 11 13 14 15 16 17 17 16 16 14 14
29 28 26 27 26 25 23 22 22 23 21 19 18 17 15 13 13 13 14 14 14 15 14 14 13 13 12 11 11 11 12 13 13 13 14 14 15 16 16 17 17 17 16 15
29 29 29 28 26 25 24 23 23 23 21 19 18 17 16 14 13 13 14 14 15 15 15 15 14 14 13 13 13 14 14 13 14 14 15 16 15 16 16 17 17 18 17 16
31 31 29 28 26 25 24 24 24 23 20 20 18 16 16 14 14 14 15 15 16 16 16 15 15 15 14 14 15 15 14 13 14 15 16 16 15 16 18 18 18 18 17 17
30 30 29 28 27 26 26 25 24 22 21 20 18 16 16 15 14 14 14 15 16 16 16 16 16 15 15 15 15 14 14 14 15 15 16 16 17 17 18 19 19 18 18 18
31 30 30 29 28 28 27 25 24 22 21 20 19 16 16 16 15 15 15 15 15 15 15 15 14 15 15 15 15 15 15 15 16 17 16 16 17 17 19 20 21 20 19 19
31 29 29 29 29 28 27 25 23 22 22 19 20 17 17 17 16 16 16 15 15 15 15 14 15 15 15 15 15 15 16 16 17 17 17 16 17 17 19 20 21 21 20 20
29 29 29 28 28 27 25 24 22 19 18 18 20 18 18 16 16 16 15 15 15 15 14 15 15 15 14 15 15 15 17 17 16 15 15 15 17 17 18 19 21 22 22 21
29 29 28 28 28 27 26 25 23 21 19 17 18 18 17 15 15 15 15 15 15 15 14 14 14 14 14 15 15 15 16 16 15 14 14 15 17 18 19 20 21 22 22 22
29 28 28 27 28 28 27 25 25 22 19 16 16 17 16 15 15 15 15 15 14 14 14 14 14 14 14 13 14 15 15 15 14 14 15 14 16 18 19 20 20 21 22 22
28 27 28 28 28 27 26 26 25 22 20 16 13 14 15 15 15 15 14 13 13 14 14 14 13 13 12 13 13 14 15 15 14 15 15 14 15 16 17 18 19 21 22 22
27 26 26 27 26 26 26 25 24 23 22 20 15 15 16 15 14 14 13 12 12 12 12 12 12 12 12 12 12 13 13 13 14 15 16 16 15 16 17 17 18 20 20 20
28 27 26 26 26 27 26 25 24 23 21 19 16 16 16 14 13 13 12 12 11 11 12 11 11 12 12 12 12 12 13 13 14 14 15 16 16 17 17 18 19 19 20 20
27 27 25 22 22 24 25 25 24 23 21 19 18 17 17 15 14 13 13 12 12 12 12 12 11 11 11 11 11 11 12 12 11 13 14 15 15 15 16 16 17 18 18 19
27 27 27 26 25 24 23 24 24 23 21 19 17 17 17 16 15 15 14 13 12 12 13 13 13 13 12 11 10 10 10 10 11 12 13 14 14 14 15 15 15 16 17 17
28 27 26 27 26 25 24 24 24 23 23 21 19 18 17 16 15 15 15 14 13 13 13 13 13 13 13 12 11 11 10 10 10 11 12 12 13 13 14 14 14 15 16 17
28 27 26 25 25 25 25 25 24 23 23 22 20 19 17 17 16 16 16 15 15 14 14 14 14 13 12 12 12 12 11 11 11 11 10 11 11 12 13 13 14 14 15 16
29 28 26 25 26 25 25 25 24 24 23 22 22 20 18 18 17 16 16 16 15 15 14 14 14 13 13 12 12 13 13 12 12 12 12 12 12 12 12 13 13 13 14 15
31 29 28 27 26 26 26 25 24 24 24 23 22 21 19 18 17 17 16 16 15 15 15 15 14 14 14 13 13 13 14 14 13 13 12 12 13 12 12 12 12 13 13 14
31 30 29 28 27 26 26 25 25 25 25 24 22 21 20 20 19 18 17 17 16 15 16 15 15 14 14 14 13 13 13 13 13 13 12 12 12 12 12 12 12 13 13 13
31 31 30 29 28 27 27 24 25 27 26 24 23 22 21 21 20 19 19 18 18 17 16 17 16 16 17 16 15 14 14 14 13 13 13 13 13 13 13 13 13 14 14 14
31 32 31 30 29 29 26 25 26 27 26 25 24 24 23 22 21 20 19 19 19 18 18 17 17 17 17 17 16 15 15 15 15 14 15 15 14 14 15 15 15 15 16 16
33 33 32 32 31 29 27 26 25 25 26 26 25 25 24 23 22 21 20 19 19 19 18 18 18 18 18 17 17 17 16 15 15 16 16 16 16 16 16 16 17 17 17 18
30 31 31 30 30 30 29 28 27 27 27 27 26 25 24 24 23 22 22 21 20 20 19 20 20 19 19 19 18 18 17 17 17 16 16 16 17 17 17 17 18 18 19 19
29 29 28 29 29 30 30 28 27 28 28 27 26 26 25 24 24 23 23 22 21 22 21 21 21 21 20 19 19 19 18 17 17 17 17 17 17 18 18 19 19 19 19 19
27 28 29 29 29 29 29 29 27 27 27 27 26 25 25 24 22 22 22 22 22 22 22 21 21 21 20 19 19 19 18 18 18 17 17 18 18 19 19 20 20 20 20 20

GEFSCGP_500_meanwind_168.txt.gz
Wind_Speed
27 28 26 24 22 20 18 16 15 15 19 20 17 15 16 15 16 18 17 16 15 14 13 12 12 12 12 11 11 10 9 9 9 9 9 9 9 10 11 11 12 13 13 13
29 27 24 24 24 23 23 21 19 19 21 21 19 17 16 17 18 18 18 17 17 16 15 13 13 13 13 13 12 11 11 11 10 10 10 10 10 10 10 11 13 14 14 15
28 24 25 27 26 26 25 23 21 20 21 21 20 18 17 17 18 18 18 18 17 16 15 13 13 13 13 13 13 13 12 12 11 11 11 11 11 11 10 11 12 14 15 15
28 26 27 27 27 26 25 23 22 22 22 21 19 17 18 19 20 19 18 18 17 17 16 14 13 14 14 14 14 12 13 13 13 12 12 11 12 12 12 12 12 14 14 14
29 28 28 28 27 26 24 23 23 23 23 21 20 19 19 21 21 18 17 18 17 17 16 15 14 14 14 14 13 13 14 14 14 14 13 13 13 12 12 12 13 14 15 15
29 28 28 27 27 26 24 24 24 23 23 23 20 19 20 21 21 19 16 16 17 17 16 15 14 14 14 13 13 14 14 15 15 14 14 14 14 14 13 13 14 14 15 15
29 29 29 28 27 27 26 25 23 22 21 20 16 19 21 22 22 19 16 16 17 16 16 15 14 14 14 14 14 15 15 15 15 15 14 14 14 14 14 14 14 15 15 16
27 28 28 27 27 26 26 25 22 17 15 14 16 20 21 21 21 19 17 17 17 17 18 17 15 14 15 15 15 16 16 16 16 15 15 14 14 14 14 14 15 15 16 16
23 24 25 25 25 26 25 25 21 19 15 14 16 19 21 21 20 20 18 17 17 17 18 16 15 15 15 15 16 16 16 16 16 15 15 14 14 14 14 15 16 15 16 16
21 19 22 24 25 26 25 23 24 25 21 19 19 21 21 20 18 18 17 17 17 17 16 15 15 16 16 16 16 17 17 16 16 16 15 15 15 15 15 16 16 16 16 17
24 20 20 24 27 25 26 26 25 24 22 19 19 20 18 20 18 17 17 17 16 16 17 16 16 16 16 16 16 16 16 16 16 15 15 15 15 14 15 15 15 16 15 15
26 23 21 23 23 23 25 26 26 27 25 22 20 19 18 18 18 15 16 16 16 17 17 16 16 16 16 15 16 16 16 16 16 15 15 15 15 15 15 16 15 15 16 17
29 27 24 23 23 24 26 26 26 26 25 24 19 20 20 18 16 15 16 15 16 16 16 16 15 15 15 15 15 15 15 16 16 16 16 16 15 15 15 16 16 16 16 16
30 31 28 23 20 20 22 25 26 27 26 24 21 22 20 19 17 16 17 16 16 15 15 15 14 15 15 14 14 15 15 16 16 16 16 15 15 15 16 16 16 16 17 17
32 32 31 26 22 21 21 23 25 26 26 23 21 21 22 21 19 17 17 17 16 15 15 15 15 15 15 15 15 15 15 15 15 15 16 15 15 15 16 16 16 17 17 17
32 32 32 30 25 23 22 21 24 25 25 24 23 23 23 23 21 18 17 17 17 16 15 15 15 15 15 15 14 14 14 14 14 14 14 14 14 14 15 16 17 17 17 17
30 32 31 29 26 24 25 25 25 25 26 25 26 28 26 24 23 21 19 18 18 17 16 16 16 16 15 15 15 14 14 14 13 12 13 13 14 14 14 15 15 15 15 16
30 31 29 27 27 28 25 23 24 25 27 28 28 30 26 23 22 22 20 19 18 18 18 17 17 16 15 15 14 14 14 13 12 12 12 13 13 13 14 14 15 15 15 15
30 30 29 28 27 26 25 25 25 27 28 30 31 30 27 25 23 22 22 20 20 19 19 18 17 16 15 15 15 14 14 14 14 14 13 14 14 14 14 15 15 15 15 15
28 29 29 29 27 26 26 26 27 29 30 31 32 29 27 25 25 25 23 22 21 20 19 18 17 17 16 15 15 15 14 14 14 15 15 14 14 14 14 15 15 15 15 15
29 30 30 29 29 28 27 27 27 30 32 31 28 27 26 25 25 24 24 23 22 21 20 19 18 17 17 16 16 15 15 15 15 15 15 15 15 15 15 15 15 16 16 16
29 29 31 30 31 30 30 30 30 30 29 27 26 26 26 25 24 24 24 23 22 21 20 20 19 18 18 17 17 17 17 16 16 16 16 16 16 15 15 15 16 16 16 15
31 32 33 34 34 32 30 30 29 29 27 26 26 26 26 26 26 24 23 23 22 21 21 20 20 19 19 19 19 18 18 17 17 17 17 17 16 16 16 16 16 16 16 16
34 34 34 34 34 31 30 29 27 27 26 25 26 27 26 26 24 24 24 24 23 22 21 21 20 20 19 19 19 19 19 18 18 17 17 17 17 17 17 18 17 17 17 17
34 33 34 34 33 30 30 28 27 26 26 25 26 26 26 26 26 26 25 24 23 22 22 21 20 20 20 20 19 19 19 19 18 18 18 18 18 18 18 18 18 18 18 19
32 33 32 33 32 31 29 27 27 27 27 26 26 25 25 25 25 25 25 24 23 23 22 22 21 20 20 21 21 21 20 19 19 19 18 19 19 19 18 18 18 18 18 18

GEFSCGP_500_meanwind_174.txt.gz
Wind_Speed
29 28 25 23 23 22 22 22 21 18 15 14 14 14 14 15 15 14 13 12 12 12 11 10 9 8 7 6 5 4 4 5 5 5 5 5 5 6 6 7 8 8 9 10
30 27 24 26 26 25 25 24 22 20 16 15 15 16 17 16 15 15 15 13 13 12 12 11 10 9 8 6 5 5 6 6 5 6 6 6 6 6 6 6 8 9 9 10
29 25 27 28 27 27 26 25 23 20 18 18 18 18 18 17 16 16 15 14 13 12 11 11 11 11 10 7 6 6 7 7 7 7 8 7 7 7 7 7 8 9 9 10
30 29 29 29 28 27 26 25 25 23 22 22 22 21 19 19 18 17 16 15 14 12 13 12 12 13 12 10 8 7 7 8 8 8 8 8 8 8 7 7 8 9 10 11
29 28 29 28 26 26 25 26 27 26 25 24 23 23 20 20 20 18 17 16 16 13 14 14 13 13 12 11 9 9 9 9 9 9 9 9 9 8 8 8 9 9 10 11
29 30 31 28 26 26 26 27 28 28 27 26 24 24 21 20 20 19 18 18 16 16 16 15 14 14 13 11 10 10 9 10 10 10 9 9 9 9 9 9 9 10 10 11
30 31 30 29 29 28 29 29 29 30 29 26 23 26 22 19 20 19 18 18 18 17 16 15 14 14 13 12 11 11 11 11 11 11 10 9 10 9 10 11 10 10 11 11
30 30 30 29 29 28 29 29 28 28 26 23 23 25 21 19 19 19 17 17 17 16 15 14 14 13 13 12 12 12 12 12 12 12 12 11 10 10 10 11 11 10 11 12
29 28 28 28 28 28 29 28 26 27 26 25 24 22 19 18 18 17 16 16 15 14 14 12 13 13 13 13 13 12 12 12 11 11 12 11 10 10 11 11 11 11 12 13
28 28 28 27 29 29 28 26 28 28 27 26 23 21 18 17 16 16 15 15 15 14 13 13 12 11 13 13 12 12 12 11 12 12 12 12 11 10 10 11 12 12 13 13
28 28 28 30 30 28 28 28 29 28 28 27 24 21 19 17 16 14 13 15 15 15 14 12 11 11 12 12 12 11 12 12 12 12 13 12 12 11 11 11 13 14 14 14
28 29 29 30 28 26 26 27 28 29 28 26 25 21 20 18 15 14 13 13 13 14 14 13 11 10 12 12 11 11 12 12 12 13 13 12 12 12 12 12 13 14 14 15
29 30 30 30 30 28 28 27 28 28 28 28 27 23 21 20 18 16 15 14 15 15 14 13 11 10 12 12 11 11 12 12 12 12 12 12 13 13 13 13 12 12 13 14
30 30 30 29 28 27 27 27 27 28 30 29 28 25 23 21 19 17 15 14 13 12 12 11 10 10 11 10 10 10 11 11 12 12 12 12 13 12 12 12 12 12 13 13
31 31 29 29 28 28 27 26 27 29 29 29 28 26 24 22 20 17 16 14 12 11 9 9 9 10 10 11 11 11 11 11 11 11 11 11 11 12 12 12 12 12 12 13
32 32 30 29 29 29 28 27 28 29 29 30 29 28 24 22 20 19 18 14 12 11 9 9 10 10 11 10 10 11 11 11 12 11 11 11 12 12 12 12 12 12 13 13
33 33 32 31 30 29 28 27 28 29 29 30 29 26 24 22 21 20 18 15 12 11 11 11 11 11 10 11 11 11 12 12 12 11 11 11 11 11 12 12 12 13 13 14
33 33 32 32 32 33 29 28 28 29 29 30 28 27 26 24 22 21 19 17 15 13 13 12 12 11 11 12 11 12 12 12 12 12 11 11 12 12 12 12 12 12 13 14
34 34 34 33 33 32 31 31 29 29 30 29 28 28 27 25 24 23 22 20 17 15 14 13 13 13 13 13 13 13 12 12 13 13 12 12 12 12 12 12 13 12 13 13
34 35 35 35 35 35 32 32 31 30 30 30 29 29 28 25 24 22 21 20 19 18 17 16 15 15 15 15 14 13 13 13 13 12 12 12 12 13 13 13 14 14 14 14
36 36 36 36 37 36 34 33 34 34 31 29 28 28 29 27 25 24 24 23 20 19 18 17 17 17 16 15 15 14 14 13 13 13 14 14 14 14 14 15 15 15 15 15
36 36 36 37 37 36 34 34 35 33 30 29 29 28 28 26 26 24 23 23 22 20 19 18 18 17 17 16 16 16 15 15 15 15 15 15 15 15 15 16 15 15 16 16
36 37 36 36 36 33 33 33 34 33 31 30 29 28 27 26 26 24 23 23 23 21 21 20 19 19 18 17 17 17 16 16 16 16 16 16 16 16 16 15 15 15 16 16
34 35 34 34 35 33 31 31 32 30 29 28 29 28 26 24 25 24 23 22 21 20 21 21 20 20 19 18 18 17 17 17 17 16 16 17 16 16 15 15 16 16 16 17
33 32 32 32 32 31 29 29 28 28 27 25 26 25 23 23 23 23 22 20 20 20 20 21 21 21 22 20 19 18 19 19 18 17 17 17 16 16 16 16 16 17 17 17
33 32 31 30 30 30 28 28 26 25 25 24 23 21 21 20 20 20 20 20 19 20 20 19 19 20 19 19 18 18 19 19 19 19 19 18 17 17 16 17 17 17 17 17

GEFSCGP_500_meanwind_180.txt.gz
Wind_Speed
30 29 26 25 25 24 23 22 21 22 22 20 18 16 14 13 10 8 7 6 6 7 7 6 7 8 8 8 8 6 5 5 6 5 4 4 5 6 6 7 7 8 9 9
31 29 27 29 28 27 25 24 23 24 25 23 21 19 17 15 12 10 9 7 7 7 7 7 8 9 9 9 8 7 7 6 6 6 5 4 4 5 6 7 8 9 10 10
30 29 29 30 29 29 27 25 24 26 27 25 23 22 20 17 15 13 10 8 8 8 9 10 10 10 10 9 8 8 8 7 7 7 6 6 6 6 7 7 8 9 9 10
33 31 31 31 30 29 27 26 27 28 29 28 26 24 21 18 16 14 12 11 10 10 10 10 11 11 11 10 9 9 9 8 7 7 8 8 8 8 8 9 9 9 9 10
33 32 32 31 30 29 28 29 29 30 31 30 29 26 22 20 17 15 14 13 13 12 11 11 12 12 12 11 10 10 10 9 9 9 9 9 9 9 9 10 10 10 10 10
34 34 33 31 31 31 31 31 31 32 32 32 29 28 24 21 18 17 16 15 15 14 13 13 13 14 14 13 13 12 12 11 11 10 10 10 10 10 10 10 11 11 11 11
34 33 32 32 33 33 32 32 32 32 33 32 29 29 26 21 19 18 18 17 16 15 15 15 14 14 14 14 14 13 12 12 11 11 12 11 11 11 11 11 12 12 11 11
34 33 32 32 32 32 32 32 32 32 32 31 29 29 26 22 20 19 18 18 17 16 16 16 15 15 15 15 14 14 13 13 12 12 13 12 12 12 11 11 12 13 13 13
32 31 31 31 31 32 33 32 31 32 32 31 30 28 25 22 20 19 18 17 16 15 15 16 16 15 15 15 14 14 13 12 13 13 13 13 12 12 12 13 12 13 13 13
32 32 32 32 32 34 33 32 32 33 32 31 29 27 24 22 21 19 17 17 15 15 15 15 15 15 15 15 15 15 13 12 12 13 13 14 14 13 13 12 13 13 12 13
33 32 32 33 34 33 33 33 33 33 32 30 29 25 22 22 20 18 16 15 14 15 16 16 16 15 15 15 15 14 13 13 13 14 14 14 14 14 14 13 14 13 13 14
31 32 32 33 33 33 33 33 32 32 31 29 27 23 21 20 21 19 17 15 14 15 17 16 15 16 15 14 14 13 13 13 13 14 15 14 14 14 14 14 14 14 14 14
30 31 32 33 34 34 34 33 32 31 30 29 27 22 21 20 20 19 18 16 16 15 15 15 15 15 15 14 13 13 13 12 13 13 13 14 14 14 14 14 14 14 14 14
30 30 30 31 31 31 32 32 31 31 30 29 26 22 21 21 20 19 17 16 14 13 13 14 14 13 13 13 12 11 11 11 12 12 12 13 13 13 13 13 13 13 14 15
30 29 29 28 30 31 31 30 30 30 29 27 25 23 21 21 20 19 18 16 14 13 13 13 12 11 11 10 10 10 10 11 12 11 11 12 12 12 13 13 13 14 14 15
29 29 29 28 29 30 31 30 30 29 28 26 24 23 22 22 20 19 18 17 15 14 14 13 12 11 10 10 10 10 11 12 12 12 12 12 13 13 13 14 14 14 14 15
28 28 29 29 29 30 31 30 29 29 27 25 23 21 21 22 21 19 18 17 15 14 14 13 13 13 11 9 10 11 12 12 13 12 12 12 12 12 12 13 14 15 15 15
28 28 28 28 30 32 30 29 29 28 26 24 22 21 21 21 21 20 19 18 17 16 15 14 13 13 12 11 10 11 12 12 13 12 12 12 12 12 13 13 14 14 15 16
29 29 29 30 32 31 29 28 28 27 26 24 22 21 21 21 21 20 19 18 18 17 17 16 15 14 13 12 12 12 12 12 12 11 12 12 12 12 13 14 15 16 16 17
31 30 31 32 33 33 29 28 28 27 26 24 23 22 22 22 20 19 20 19 18 17 17 16 15 14 14 14 14 14 13 12 13 13 13 14 13 13 14 15 15 16 17 18
32 31 31 32 33 31 29 28 28 27 24 23 24 23 23 23 21 21 21 20 19 19 17 16 16 15 15 15 15 15 14 14 14 14 15 14 14 14 14 14 14 15 16 17
32 32 32 32 33 32 28 28 28 26 24 24 24 23 23 23 23 23 23 23 22 20 19 17 16 16 15 15 16 15 15 15 15 15 15 15 15 15 15 15 16 16 16 16
32 32 32 31 31 30 29 29 28 27 25 24 24 23 23 23 23 23 23 22 21 21 19 18 17 17 17 17 16 16 16 17 17 16 16 16 16 16 16 17 17 17 17 17
30 31 31 31 29 29 28 28 28 27 25 24 24 23 24 23 22 22 23 23 22 21 21 20 19 19 18 18 18 18 18 18 18 18 17 17 17 18 18 18 18 18 18 18
30 29 29 29 28 28 27 26 27 28 26 25 23 23 23 23 22 20 20 20 20 20 21 20 20 20 20 20 20 20 20 19 19 19 19 18 19 19 19 19 19 19 19 19
30 30 29 28 27 26 26 26 27 27 25 24 23 22 21 21 21 20 19 20 20 19 19 20 20 19 19 19 19 19 19 20 20 20 20 21 20 20 20 20 19 19 20 20

GEFSCGP_500_meanwind_186.txt.gz
Wind_Speed
27 26 25 23 22 22 20 19 19 19 16 14 12 11 10 9 7 7 7 7 6 6 6 6 6 6 6 6 7 6 5 4 3 4 4 4 5 6 6 7 8 7 8 8
28 27 26 26 25 23 22 21 21 20 17 15 14 13 12 11 9 9 8 8 8 7 6 7 7 8 7 8 8 8 6 4 4 4 4 4 4 5 6 7 8 9 8 8
29 29 28 27 26 25 24 23 22 21 19 17 16 15 14 13 12 11 10 10 9 9 8 8 8 8 9 9 10 9 8 7 6 6 7 7 6 6 7 7 8 9 9 10
32 31 29 28 27 26 26 25 24 22 21 20 18 17 17 15 14 13 12 11 11 11 10 10 10 10 10 11 11 11 10 8 8 8 9 9 8 7 7 7 8 8 9 9
33 31 30 29 28 28 28 26 25 24 23 23 21 19 19 17 16 15 13 13 13 13 12 12 12 12 12 13 12 12 11 10 10 10 9 9 9 9 8 8 9 10 9 9
34 32 32 30 30 29 29 27 26 25 25 25 23 21 20 19 16 16 15 15 14 14 14 14 14 14 14 14 13 13 12 12 11 11 10 10 10 11 10 9 10 11 11 10
34 33 32 31 31 30 29 28 27 27 27 25 24 23 21 20 17 17 17 16 15 15 15 15 14 14 14 14 14 13 12 12 11 12 12 12 11 11 11 11 11 12 12 12
34 34 32 31 31 30 29 29 28 25 23 24 25 24 22 20 18 18 18 17 16 15 15 15 15 14 14 14 13 12 12 13 12 13 13 13 13 12 12 13 12 12 13 13
34 34 32 31 31 31 30 30 29 28 26 23 25 23 22 20 18 18 18 18 16 16 16 16 16 14 14 14 13 13 14 14 13 13 13 13 13 12 12 12 12 12 12 13
34 34 33 32 32 32 31 30 30 29 27 24 24 23 21 20 19 19 19 18 17 17 16 16 16 15 15 14 14 15 16 15 15 14 14 13 14 14 13 13 13 13 14 14
33 33 33 32 32 31 30 31 30 29 28 23 20 21 21 19 19 19 19 19 18 17 17 17 17 16 16 16 15 16 16 14 15 15 15 14 14 14 14 14 14 14 15 14
32 32 32 32 31 31 30 30 29 29 28 25 21 20 21 19 19 19 19 19 18 18 17 17 17 17 17 17 16 16 16 15 15 15 15 15 15 15 14 14 14 14 15 16
32 32 31 31 31 31 30 30 29 28 27 25 22 21 21 19 19 19 19 18 17 17 17 17 17 17 17 16 16 16 16 16 15 15 15 15 15 15 14 14 14 14 15 15
31 31 29 27 28 29 29 28 27 27 26 24 22 20 21 19 19 18 18 18 17 17 17 17 16 16 16 16 16 16 16 15 15 14 14 14 15 14 13 13 14 14 14 14
31 30 30 29 29 28 27 27 27 26 24 22 21 20 20 20 19 18 18 18 17 17 17 16 15 14 15 15 15 15 15 14 14 13 14 14 13 14 14 14 14 14 14 15
31 30 30 30 29 28 28 28 27 25 24 22 21 20 20 20 19 19 18 18 17 17 16 15 15 15 14 14 13 13 13 13 13 14 13 13 14 14 14 14 14 14 15 16
29 29 29 29 29 29 29 27 26 25 24 22 21 19 19 19 19 18 18 18 18 17 16 16 16 15 14 13 13 12 13 14 14 14 15 15 15 15 15 14 14 14 15 16
27 27 27 27 29 29 27 26 26 25 24 22 21 20 19 19 19 19 19 19 19 18 17 17 15 15 14 14 13 13 13 14 15 15 15 16 16 16 16 16 15 15 16 17
27 26 26 27 27 28 27 26 25 24 24 22 21 21 20 20 19 19 19 20 19 19 18 17 16 16 15 15 14 13 13 14 15 15 16 16 17 16 16 16 16 16 16 16
27 27 26 27 26 27 26 25 25 24 24 22 22 21 20 20 19 19 19 21 20 19 19 18 17 17 16 16 16 15 15 14 15 16 16 16 16 16 16 16 17 17 17 17
29 28 27 26 26 27 26 25 25 25 24 22 22 22 21 21 20 20 20 20 20 19 19 18 17 16 16 16 15 16 16 16 16 16 16 17 17 17 16 17 17 17 17 18
29 29 28 27 26 27 25 26 27 26 24 23 23 22 21 21 21 21 21 21 21 20 19 19 18 18 18 17 17 17 17 16 17 16 16 17 17 17 17 18 18 18 18 18
30 30 29 28 27 26 25 26 26 25 25 24 24 23 22 22 22 22 22 22 22 21 21 21 20 19 19 19 18 18 18 17 17 18 18 19 19 18 18 19 18 18 18 19
29 29 29 28 27 26 25 25 26 26 26 25 25 24 23 23 22 22 22 23 23 22 22 22 21 20 20 19 19 19 18 18 19 20 20 20 20 19 19 19 19 19 20 20
29 28 28 27 27 27 26 26 26 26 27 27 26 26 25 24 23 23 23 24 24 24 23 22 21 20 20 20 20 19 19 19 20 20 21 20 20 21 20 20 20 20 21 22
29 28 28 27 26 26 26 26 26 26 27 27 27 27 26 25 25 25 25 24 24 24 23 23 23 22 21 21 20 19 19 19 20 20 20 20 20 21 21 21 21 22 22 22